Hourly Weather Roundup
Issued by NWS Central Illinois

Home | Current Version | Previous Version | Text Only | Print | Product List | Glossary On
Versions: 1 2 3 4 5 6 7 8 9 10 11 12 13 14 15 16 17 18 19 20 21 22 23 24 25 26 27 28 29 30 31 32 33 34 35 36 37 38 39 40 41 42 43 44 45 46 47 48 49 50
000
NZUS43 KILX 060710
HWRILX

AREA WEATHER ROUNDUP
NATIONAL WEATHER SERVICE, LINCOLN IL
100 AM CST FRI MAR 06 2015


CITY           SKY/WX    TMP DP  RH WIND       PRES   REMARKS
BLOOMINGTON    PTCLDY     1  -3  83 S5        30.53F WCI  -9
CHAMPAIGN      PTCLDY    -2  -6  83 CALM      30.55S FOG
DECATUR        PTCLDY    -6  -9  86 CALM      30.56S
EFFINGHAM      PTCLDY     0  -5  78 CALM      30.59F
FLORA          MOCLDY     5   2  85 CALM      30.59F
GALESBURG      PTCLDY     1  -3  83 S5        30.50F WCI  -9
JACKSONVILLE   CLEAR      7  -2  67 SE7       30.54F WCI  -5
LACON          PTCLDY    -1  -5  80 CALM      30.53F
LAWRENCEVILLE  MOCLDY     6   1  80 CALM      30.60F
LITCHFIELD     CLEAR      2  -4  74 SE5       30.55F WCI  -7
$$


CITY           SKY/WX    TMP DP  RH WIND       PRES   REMARKS
LINCOLN        PTCLDY     0  -4  81 CALM      30.58F
MACOMB         PTCLDY     2  -2  83 S6        30.54F WCI  -9
MATTOON        PTCLDY     0  -4  83 CALM      30.55F
MT CARMEL AP   PTCLDY     7   1  78 CALM      30.60S
OLNEY-NOBLE AP PTCLDY     3   0  85 CALM      30.60S
PARIS          PTCLDY    -6 -10  84 CALM      30.57F
PEORIA         PTCLDY     4  -4  69 CALM      30.54F
PONTIAC        PTCLDY    -7 -11  82 CALM      30.55S
RANTOUL        PTCLDY    -5  -9  85 CALM      30.55S
ROBINSON       PTCLDY    -1  -3  91 CALM      30.61S
SPRINGFIELD    PTCLDY     1  -4  79 CALM      30.56F
TAYLORVILLE    PTCLDY     1  -2  85 SE3       30.56F
$$

...REGIONAL REPORTS...


CITY           SKY/WX    TMP DP  RH WIND       PRES   REMARKS
CHICAGO O`HARE PTCLDY     5  -4  66 W6        30.50F WCI  -6
KANKAKEE       PTCLDY    -1  -6  80 CALM      30.55S
MOLINE         PTCLDY     0  -6  76 CALM      30.50F
MOUNT VERNON   PTCLDY     3  -2  78 CALM      30.59S
PITTSFIELD     CLEAR      9   2  75 S5        30.54F WCI   0
QUINCY         CLEAR      9  -1  64 S5        30.51F WCI   1
ROCKFORD       PTCLDY    -1  -7  75 S5        30.50F WCI -11
$$


CITY           SKY/WX    TMP DP  RH WIND       PRES   REMARKS
BURLINGTON     PTCLDY     6   0  76 S5        30.49F WCI  -3
CEDAR RAPIDS   PTCLDY     3  -2  79 S9        30.42F WCI -12
DES MOINES     PTCLDY    17   4  56 S13       30.36F WCI   4
KIRKSVILLE     CLEAR     14  10  84 S8        30.45F WCI   3
OTTUMWA        CLEAR     12   3  67 S12       30.42F WCI  -2
ST LOUIS       CLEAR     15   6  67 E5        30.57F WCI   8
$$


CITY           SKY/WX    TMP DP  RH WIND       PRES   REMARKS
TERRE HAUTE    PTCLDY     1  -2  87 CALM      30.59S
EVANSVILLE     PTCLDY     6   1  80 CALM      30.61S
INDIANAPOLIS   PTCLDY     7  -1  70 CALM      30.54S
LAFAYETTE      PTCLDY     0  -4  83 CALM      30.56F
MADISON        PTCLDY     3  -6  66 CALM      30.43F
MILWAUKEE      PTCLDY     4  -7  60 SW8       30.46F WCI  -9
$$





USA.gov is the U.S. government's official web portal to all federal, state and local government web resources and services.